Regional Weather Roundup
Issued by NWS

Home | Current Version | Previous Version | Graphics & Text | Print | Product List | Glossary On
Versions: 1 2 3 4 5 6 7 8 9 10 11 12 13 14 15 16 17 18 19 20 21 22 23 24 25 26 27 28 29 30 31 32 33 34 35 36 37 38 39 40 41 42 43 44 45 46 47 48 49 50
000
ASUS43 KLMK 270410
RWRKY
KENTUCKY REGIONAL WEATHER ROUNDUP
NATIONAL WEATHER SERVICE LOUISVILLE KY
1100 PM EST THU FEB 26 2015

NOTE "FAIR" INDICATES FEW OR NO CLOUDS BELOW 12,000 FEET
WITH NO SIGNIFICANT WEATHER AND/OR OBSTRUCTIONS TO VISIBILITY.

KYZ001>023-026-027-061>063-070>075-270500-
WESTERN AND SOUTH CENTRAL KENTUCKY

CITY           SKY/WX    TMP DP  RH WIND       PRES   REMARKS
PADUCAH        PTCLDY    21  12  68 N10       30.43R WCI  10
HENDERSON      CLEAR     19  10  68 NW8       30.42R WCI   9
OWENSBORO      PTCLDY    21  12  68 N8        30.41R WCI  11
HOPKINSVILLE   PTCLDY    24  17  74 N13       30.37R WCI  12
BOWLING GREEN  CLOUDY    26  15  63 NW8       30.35R WCI  18
GLASGOW        FLURRIES  25  19  77 N9        30.33R WCI  15
$$

KYZ024-025-028>034-038-045-046-053-270500-
NORTH CENTRAL KENTUCKY

CITY           SKY/WX    TMP DP  RH WIND       PRES   REMARKS
LOUISVILLE/SDF CLEAR     19   9  65 N12       30.38R WCI   7
LOUISVILLE/LOU CLEAR     18   9  68 N7        30.38R WCI   9
FORT KNOX      CLOUDY    19  10  68 N10       30.35R WCI   8
$$

KYZ035>037-039>044-047>052-055>060-089>105-270500-
NORTHEAST KENTUCKY

CITY           SKY/WX    TMP DP  RH WIND       PRES   REMARKS
LEXINGTON      CLOUDY    17  10  74 N14       30.31R WCI   3
COVINGTON      CLEAR     12   4  70 N8        30.32R WCI   0
FRANKFORT      MOCLDY    18   9  68 N8G18     30.32R WCI   8
$$

KYZ054-064>069-076>088-106>120-270500-
SOUTHEAST KENTUCKY

CITY           SKY/WX    TMP DP  RH WIND       PRES   REMARKS
JACKSON        CLOUDY    24  15  68 VRB5      30.21R WCI  18
LONDON         CLOUDY    28  17  63 N12       30.23R WCI  18
SOMERSET       LGT SNOW  27  21  80 N8        30.28R WCI  18
MIDDLESBORO    CLOUDY    32  20  62 N3        30.21R
MONTICELLO     LGT SNOW  26  21  81 N10       30.30R WCI  16
$$




USA.gov is the U.S. government's official web portal to all federal, state and local government web resources and services.